User: anonymous   Login
Location: Unspecified
(0.0000°N, 0.0000°E)
Time: 16:24:36
(UTC+00:00)
Language:

ELFIN B - Orbit

View from above orbital plane
View from above orbital plane
View from above satellite
View from above satellite

Ground track
Ground track

The orbit data is extracted from the following two-line orbital elements,

1 43616U 18070D   21334.11235106  .00015797  00000-0  29391-3 0  9994
2 43616  93.0211  15.4930 0015453  78.0093 282.2897 15.48702319180372
Epoch (UTC): 30 November 2021 02:41:47
Eccentricity: 0.0015453
inclination: 93.0211°
perigee height: 410 km
apogee height: 431 km
right ascension of ascending node: 15.4930°
argument of perigee: 78.0093°
revolutions per day: 15.48702319
mean anomaly at epoch: 282.2897°
orbit number at epoch: 18037

The dashed part of the orbit path shows where the satellite is in the earth's shadow,  

DLR